SPKEA EDAH-EPSC

Flight info

Callsign SPKEA
Flight time 0h 34m
Altitude 1500
Route DCT EDAHE DCT 533738N0141603E DCT PESEL DCT 532837N0143235E DCT EPSDA DCT EPSDB DCT 532729N0144323E DCT EPSCI DCT EPSCS DCT
Aircraft C172/L-SBDGR/C

Departure

Time 2026-04-30 09:07
Airport Heringsdorf Airport (EDAH)

Arrival

Time 2026-04-30 09:41
Airport Solidarity Szczecin–Goleniów Airport (EPSC)
Time Latitude Longitude Altitude Speed Heading
2026-04-30 08:53 53.87649 14.15622 70 ft 0 kts 24°
2026-04-30 09:02 53.87665 14.15642 70 ft 7 kts 59°
2026-04-30 09:03 53.87649 14.15735 70 ft 10 kts 112°
2026-04-30 09:03 53.87614 14.15881 70 ft 13 kts 114°
2026-04-30 09:03 53.87580 14.16019 70 ft 12 kts 114°
2026-04-30 09:03 53.87543 14.16167 70 ft 14 kts 111°
2026-04-30 09:04 53.87507 14.16326 70 ft 13 kts 110°
2026-04-30 09:04 53.87477 14.16459 70 ft 10 kts 111°
2026-04-30 09:04 53.87462 14.16575 70 ft 10 kts 70°
2026-04-30 09:04 53.87508 14.16673 70 ft 11 kts 39°
2026-04-30 09:05 53.87561 14.16748 70 ft 7 kts 39°
2026-04-30 09:05 53.87605 14.16781 70 ft 8 kts 358°
2026-04-30 09:05 53.87622 14.16751 70 ft 0 kts 285°
2026-04-30 09:06 53.87651 14.16573 70 ft 35 kts 285°
2026-04-30 09:06 53.87753 14.15935 96 ft 71 kts 285°
2026-04-30 09:06 53.87888 14.15097 255 ft 77 kts 288°
2026-04-30 09:06 53.88021 14.14225 461 ft 75 kts 283°
2026-04-30 09:07 53.88128 14.13383 650 ft 77 kts 285°
2026-04-30 09:07 53.88276 14.12477 842 ft 82 kts 287°
2026-04-30 09:07 53.88314 14.11535 1067 ft 83 kts 261°
2026-04-30 09:07 53.87935 14.10678 1123 ft 104 kts 219°
2026-04-30 09:08 53.87207 14.10324 1189 ft 112 kts 185°
2026-04-30 09:08 53.86454 14.10732 1210 ft 117 kts 144°
2026-04-30 09:08 53.86000 14.11832 1227 ft 115 kts 105°
2026-04-30 09:08 53.85804 14.13031 1323 ft 102 kts 95°
2026-04-30 09:09 53.85674 14.14256 1384 ft 110 kts 94°
2026-04-30 09:09 53.85491 14.15535 1431 ft 110 kts 100°
2026-04-30 09:09 53.85238 14.16729 1474 ft 108 kts 104°
2026-04-30 09:09 53.84905 14.17841 1482 ft 104 kts 127°
2026-04-30 09:10 53.84303 14.18442 1493 ft 100 kts 156°
2026-04-30 09:10 53.83666 14.18951 1498 ft 106 kts 150°
2026-04-30 09:10 53.82937 14.19513 1505 ft 122 kts 156°
2026-04-30 09:10 53.82114 14.20024 1499 ft 129 kts 159°
2026-04-30 09:11 53.81253 14.20536 1496 ft 132 kts 162°
2026-04-30 09:11 53.80458 14.21020 1483 ft 110 kts 158°
2026-04-30 09:11 53.79781 14.21444 1485 ft 100 kts 158°
2026-04-30 09:11 53.79102 14.21864 1496 ft 107 kts 160°
2026-04-30 09:12 53.78368 14.22252 1495 ft 112 kts 163°
2026-04-30 09:12 53.77621 14.22646 1496 ft 114 kts 162°
2026-04-30 09:12 53.76857 14.23051 1496 ft 116 kts 163°
2026-04-30 09:12 53.76065 14.23387 1495 ft 117 kts 169°
2026-04-30 09:13 53.75273 14.23706 1496 ft 117 kts 166°
2026-04-30 09:13 53.74497 14.24051 1494 ft 117 kts 166°
2026-04-30 09:13 53.73704 14.24337 1496 ft 116 kts 174°
2026-04-30 09:13 53.72893 14.24506 1493 ft 116 kts 174°
2026-04-30 09:14 53.72094 14.24640 1494 ft 112 kts 174°
2026-04-30 09:14 53.71358 14.24813 1485 ft 104 kts 171°
2026-04-30 09:14 53.70658 14.24991 1488 ft 99 kts 171°
2026-04-30 09:14 53.69960 14.25112 1495 ft 101 kts 176°
2026-04-30 09:15 53.69259 14.25244 1498 ft 103 kts 174°
2026-04-30 09:15 53.68542 14.25428 1498 ft 104 kts 171°
2026-04-30 09:15 53.67836 14.25660 1496 ft 104 kts 171°
2026-04-30 09:15 53.67111 14.25890 1498 ft 105 kts 169°
2026-04-30 09:16 53.66391 14.26119 1493 ft 106 kts 169°
2026-04-30 09:16 53.65665 14.26314 1494 ft 106 kts 173°
2026-04-30 09:16 53.64934 14.26467 1492 ft 105 kts 176°
2026-04-30 09:16 53.64207 14.26502 1494 ft 104 kts 183°
2026-04-30 09:17 53.63485 14.26412 1494 ft 105 kts 182°
2026-04-30 09:17 53.62754 14.26494 1489 ft 105 kts 173°
2026-04-30 09:17 53.62032 14.26668 1489 ft 104 kts 171°
2026-04-30 09:17 53.61309 14.26867 1490 ft 104 kts 171°
2026-04-30 09:18 53.60582 14.27037 1486 ft 105 kts 171°
2026-04-30 09:18 53.59863 14.27230 1486 ft 106 kts 171°
2026-04-30 09:18 53.59137 14.27436 1490 ft 106 kts 170°
2026-04-30 09:18 53.58400 14.27674 1489 ft 108 kts 167°
2026-04-30 09:19 53.57661 14.27941 1481 ft 108 kts 168°
2026-04-30 09:19 53.56920 14.28148 1481 ft 108 kts 174°
2026-04-30 09:19 53.56170 14.28257 1482 ft 107 kts 176°
2026-04-30 09:19 53.55429 14.28334 1476 ft 106 kts 176°
2026-04-30 09:20 53.54699 14.28472 1485 ft 106 kts 170°
2026-04-30 09:20 53.53997 14.28853 1483 ft 106 kts 148°
2026-04-30 09:20 53.53366 14.29512 1480 ft 105 kts 139°
2026-04-30 09:20 53.52777 14.30244 1484 ft 105 kts 140°
2026-04-30 09:21 53.52173 14.30967 1481 ft 106 kts 141°
2026-04-30 09:21 53.51572 14.31665 1484 ft 106 kts 142°
2026-04-30 09:21 53.50985 14.32430 1481 ft 104 kts 122°
2026-04-30 09:21 53.50694 14.33483 1481 ft 99 kts 99°
2026-04-30 09:22 53.50510 14.34606 1474 ft 99 kts 97°
2026-04-30 09:22 53.50324 14.35722 1473 ft 99 kts 99°
2026-04-30 09:22 53.50101 14.36868 1484 ft 109 kts 102°
2026-04-30 09:22 53.49885 14.38138 1482 ft 117 kts 98°
2026-04-30 09:23 53.49633 14.39465 1482 ft 122 kts 102°
2026-04-30 09:23 53.49357 14.40817 1483 ft 123 kts 103°
2026-04-30 09:23 53.49143 14.42191 1482 ft 121 kts 95°
2026-04-30 09:23 53.48998 14.43583 1481 ft 120 kts 90°
2026-04-30 09:24 53.48908 14.44989 1483 ft 121 kts 89°
2026-04-30 09:24 53.48785 14.46365 1488 ft 122 kts 94°
2026-04-30 09:24 53.48617 14.47745 1481 ft 114 kts 95°
2026-04-30 09:24 53.48444 14.49005 1484 ft 110 kts 97°
2026-04-30 09:25 53.48250 14.50230 1475 ft 107 kts 96°
2026-04-30 09:25 53.48090 14.51428 1481 ft 104 kts 94°
2026-04-30 09:25 53.47940 14.52622 1490 ft 103 kts 94°
2026-04-30 09:25 53.47815 14.53814 1491 ft 103 kts 91°
2026-04-30 09:26 53.47608 14.54968 1487 ft 108 kts 119°
2026-04-30 09:26 53.46958 14.55626 1491 ft 112 kts 157°
2026-04-30 09:26 53.46232 14.56113 1487 ft 111 kts 159°
2026-04-30 09:26 53.45507 14.56456 1492 ft 107 kts 166°
2026-04-30 09:27 53.44791 14.56681 1480 ft 99 kts 175°
2026-04-30 09:27 53.44136 14.56731 1483 ft 94 kts 184°
2026-04-30 09:27 53.43451 14.56610 1488 ft 103 kts 194°
2026-04-30 09:27 53.42730 14.56494 1486 ft 106 kts 178°
2026-04-30 09:28 53.41980 14.56567 1481 ft 105 kts 180°
2026-04-30 09:28 53.41284 14.56559 1477 ft 98 kts 183°
2026-04-30 09:28 53.40619 14.56601 1478 ft 93 kts 162°
2026-04-30 09:28 53.40188 14.57269 1493 ft 86 kts 112°
2026-04-30 09:29 53.39959 14.58239 1497 ft 91 kts 90°
2026-04-30 09:29 53.39908 14.59309 1495 ft 94 kts 80°
2026-04-30 09:29 53.39963 14.60418 1500 ft 99 kts 71°
2026-04-30 09:29 53.40060 14.61532 1487 ft 93 kts 73°
2026-04-30 09:30 53.40156 14.62620 1489 ft 96 kts 71°
2026-04-30 09:30 53.40272 14.63752 1494 ft 99 kts 71°
2026-04-30 09:30 53.40374 14.64902 1495 ft 101 kts 72°
2026-04-30 09:30 53.40477 14.66080 1496 ft 102 kts 73°
2026-04-30 09:31 53.40620 14.67241 1494 ft 98 kts 55°
2026-04-30 09:31 53.41073 14.68040 1500 ft 95 kts 32°
2026-04-30 09:31 53.41590 14.68646 1493 ft 87 kts 25°
2026-04-30 09:31 53.42114 14.69166 1489 ft 89 kts 25°
2026-04-30 09:32 53.42654 14.69697 1490 ft 89 kts 21°
2026-04-30 09:32 53.43207 14.70173 1495 ft 89 kts 21°
2026-04-30 09:32 53.43766 14.70639 1492 ft 89 kts 20°
2026-04-30 09:32 53.44318 14.71146 1493 ft 89 kts 20°
2026-04-30 09:33 53.44875 14.71594 1492 ft 91 kts 28°
2026-04-30 09:33 53.45371 14.72263 1496 ft 92 kts 33°
2026-04-30 09:33 53.45900 14.72863 1496 ft 89 kts 20°
2026-04-30 09:33 53.46459 14.73288 1495 ft 88 kts 18°
2026-04-30 09:34 53.47026 14.73715 1495 ft 89 kts 19°
2026-04-30 09:34 53.47625 14.74139 1501 ft 97 kts 17°
2026-04-30 09:34 53.48274 14.74553 1495 ft 102 kts 17°
2026-04-30 09:34 53.48939 14.75015 1495 ft 103 kts 18°
2026-04-30 09:35 53.49595 14.75536 1493 ft 105 kts 21°
2026-04-30 09:35 53.50248 14.76121 1489 ft 105 kts 20°
2026-04-30 09:35 53.50918 14.76578 1487 ft 105 kts 16°
2026-04-30 09:35 53.51594 14.77080 1491 ft 105 kts 19°
2026-04-30 09:36 53.52259 14.77538 1494 ft 104 kts 16°
2026-04-30 09:36 53.52941 14.77980 1495 ft 105 kts 16°
2026-04-30 09:36 53.53627 14.78425 1496 ft 105 kts 18°
2026-04-30 09:36 53.54178 14.79231 1497 ft 111 kts 48°
2026-04-30 09:37 53.54589 14.80351 1496 ft 113 kts 52°
2026-04-30 09:37 53.54987 14.81517 1497 ft 114 kts 53°
2026-04-30 09:37 53.55383 14.82645 1489 ft 106 kts 46°
2026-04-30 09:37 53.55890 14.83499 1496 ft 106 kts 36°
2026-04-30 09:38 53.56455 14.84339 1494 ft 106 kts 35°
2026-04-30 09:38 53.56914 14.85218 1443 ft 100 kts 59°
2026-04-30 09:38 53.57053 14.86465 1321 ft 112 kts 75°
2026-04-30 09:38 53.57166 14.87683 1320 ft 94 kts 70°
2026-04-30 09:39 53.57121 14.88764 1258 ft 95 kts 111°
2026-04-30 09:39 53.56737 14.89660 1230 ft 97 kts 124°
2026-04-30 09:39 53.56311 14.90543 1201 ft 98 kts 124°
2026-04-30 09:39 53.55895 14.91451 1160 ft 95 kts 117°
2026-04-30 09:40 53.55845 14.92413 1112 ft 79 kts 54°
2026-04-30 09:40 53.56231 14.93001 1052 ft 72 kts 18°
2026-04-30 09:40 53.56708 14.93060 933 ft 70 kts 348°
2026-04-30 09:40 53.57155 14.92719 651 ft 74 kts 321°
2026-04-30 09:41 53.57499 14.92087 352 ft 72 kts 313°
2026-04-30 09:41 53.57806 14.91508 164 ft 61 kts 310°
2026-04-30 09:41 53.58043 14.91053 139 ft 40 kts 312°
2026-04-30 09:41 53.58192 14.90765 139 ft 26 kts 311°
2026-04-30 09:42 53.58317 14.90521 139 ft 29 kts 311°
2026-04-30 09:42 53.58450 14.90261 139 ft 30 kts 311°
2026-04-30 09:42 53.58578 14.90015 139 ft 25 kts 311°
2026-04-30 09:42 53.58678 14.89847 138 ft 14 kts 354°
2026-04-30 09:43 53.58744 14.89915 139 ft 8 kts 39°
2026-04-30 09:43 53.58807 14.90006 139 ft 14 kts 40°
2026-04-30 09:43 53.58883 14.90116 138 ft 9 kts 39°
2026-04-30 09:43 53.58937 14.90081 138 ft 9 kts 311°
2026-04-30 09:44 53.58981 14.90066 138 ft 9 kts 46°
2026-04-30 09:44 53.58996 14.90078 138 ft 0 kts 217°